| time (UTC) | temp F | wind direction | speed knots | gust knots | rain 1hr in | rain 24hr in | rain mn in | humidity % | barometer mb |
| 20260507093606 | 40 | 79 | 0.0 | 0.0 | 0.00 | 0.00 | 0.00 | 94 | 1020.1 |
| 20260507093105 | 39 | 79 | 0.0 | 0.0 | 0.00 | 0.00 | 0.00 | 93 | 1020.5 |
| 20260507092601 | 39 | 79 | 0.0 | 0.0 | 0.00 | 0.00 | 0.00 | 93 | 1020.4 |
| 20260507092058 | 40 | 79 | 0.0 | 0.0 | 0.00 | 0.00 | 0.00 | 93 | 1020.1 |
| 20260507091554 | 40 | 79 | 0.0 | 0.0 | 0.00 | 0.00 | 0.00 | 93 | 1020.0 |
| 20260507091051 | 40 | 79 | 0.0 | 0.0 | 0.00 | 0.00 | 0.00 | 93 | 1019.9 |
| 20260507090546 | 40 | 79 | 0.0 | 0.0 | 0.00 | 0.00 | 0.00 | 93 | 1020.0 |
| 20260507090044 | 40 | 79 | 0.0 | 0.0 | 0.00 | 0.00 | 0.00 | 93 | 1020.0 |
| 20260507085541 | 40 | 79 | 0.0 | 0.0 | 0.00 | 0.00 | 0.00 | 93 | 1020.4 |
| 20260507085037 | 40 | 79 | 0.0 | 0.0 | 0.00 | 0.00 | 0.00 | 93 | 1020.0 |
| 20260507084534 | 40 | 79 | 0.0 | 0.0 | 0.00 | 0.00 | 0.00 | 93 | 1020.1 |
| 20260507084031 | 40 | 79 | 0.0 | 0.0 | 0.00 | 0.00 | 0.00 | 92 | 1020.0 |
| 20260507083527 | 40 | 79 | 0.0 | 0.0 | 0.00 | 0.00 | 0.00 | 92 | 1020.4 |
| 20260507083025 | 40 | 79 | 0.0 | 0.0 | 0.00 | 0.00 | 0.00 | 92 | 1020.4 |
| 20260507082520 | 40 | 79 | 0.0 | 0.0 | 0.00 | 0.00 | 0.00 | 91 | 1020.2 |
| 20260507082016 | 40 | 79 | 0.0 | 0.0 | 0.00 | 0.00 | 0.00 | 91 | 1020.2 |
| 20260507081513 | 40 | 79 | 0.0 | 0.0 | 0.00 | 0.00 | 0.00 | 91 | 1020.1 |
| 20260507081010 | 40 | 79 | 0.0 | 0.0 | 0.00 | 0.00 | 0.00 | 91 | 1020.1 |
| 20260507080506 | 41 | 79 | 0.0 | 0.0 | 0.00 | 0.00 | 0.00 | 91 | 1020.2 |
| 20260507080001 | 41 | 79 | 0.0 | 0.0 | 0.00 | 0.00 | 0.00 | 90 | 1020.2 |
| 20260507075458 | 41 | 79 | 0.0 | 0.0 | 0.00 | 0.00 | 0.00 | 90 | 1020.2 |
| 20260507074954 | 41 | 79 | 0.0 | 0.0 | 0.00 | 0.00 | 0.00 | 90 | 1020.3 |
| 20260507074451 | 41 | 79 | 0.0 | 0.0 | 0.00 | 0.00 | 0.00 | 90 | 1020.6 |
| 20260507073950 | 41 | 79 | 0.0 | 0.0 | 0.00 | 0.00 | 0.00 | 90 | 1020.4 |
| 20260507073445 | 41 | 79 | 0.0 | 0.0 | 0.00 | 0.00 | 0.00 | 89 | 1020.2 |
| 20260507072942 | 42 | 79 | 0.0 | 0.0 | 0.00 | 0.00 | 0.00 | 88 | 1020.4 |
| 20260507072439 | 42 | 79 | 0.0 | 0.0 | 0.00 | 0.00 | 0.00 | 88 | 1020.3 |
| 20260507071937 | 42 | 79 | 0.0 | 0.0 | 0.00 | 0.00 | 0.00 | 88 | 1020.1 |
| 20260507071434 | 42 | 79 | 0.0 | 0.0 | 0.00 | 0.00 | 0.00 | 88 | 1020.1 |
| 20260507070930 | 43 | 79 | 0.0 | 0.0 | 0.00 | 0.00 | 0.00 | 87 | 1020.3 |
| 20260507070428 | 43 | 79 | 0.0 | 0.0 | 0.00 | 0.00 | 0.00 | 87 | 1020.0 |
| 20260507065924 | 43 | 79 | 0.0 | 0.9 | 0.00 | 0.00 | 0.00 | 88 | 1020.1 |
| 20260507065421 | 43 | 79 | 0.0 | 0.0 | 0.00 | 0.00 | 0.00 | 88 | 1020.2 |
| 20260507064919 | 43 | 79 | 0.0 | 0.0 | 0.00 | 0.00 | 0.00 | 87 | 1020.4 |
| 20260507064417 | 43 | 79 | 0.0 | 0.0 | 0.00 | 0.00 | 0.00 | 87 | 1019.8 |
| 20260507063914 | 43 | 79 | 0.0 | 0.0 | 0.00 | 0.00 | 0.00 | 87 | 1020.2 |
| 20260507063411 | 43 | 79 | 0.0 | 0.0 | 0.00 | 0.00 | 0.00 | 87 | 1020.7 |
| 20260507062908 | 43 | 79 | 0.0 | 0.0 | 0.00 | 0.00 | 0.00 | 86 | 1020.7 |
| 20260507062405 | 44 | 79 | 0.0 | 0.0 | 0.00 | 0.00 | 0.00 | 85 | 1020.9 |
| 20260507061903 | 44 | 79 | 0.0 | 0.0 | 0.00 | 0.00 | 0.00 | 85 | 1020.8 |
| 20260507061401 | 44 | 79 | 0.0 | 0.0 | 0.00 | 0.00 | 0.00 | 84 | 1020.8 |
| 20260507060859 | 44 | 79 | 0.0 | 0.0 | 0.00 | 0.00 | 0.00 | 84 | 1021.0 |
| 20260507060355 | 44 | 79 | 0.0 | 0.0 | 0.00 | 0.00 | 0.00 | 84 | 1021.0 |
| 20260507055852 | 45 | 79 | 0.0 | 0.0 | 0.00 | 0.00 | 0.00 | 84 | 1020.9 |
| 20260507055347 | 45 | 79 | 0.0 | 0.0 | 0.00 | 0.00 | 0.00 | 84 | 1021.0 |
| 20260507054844 | 45 | 79 | 0.0 | 0.0 | 0.00 | 0.00 | 0.00 | 83 | 1020.9 |
| 20260507054340 | 45 | 79 | 0.0 | 0.0 | 0.00 | 0.00 | 0.00 | 83 | 1021.0 |
| 20260507053837 | 45 | 79 | 0.0 | 0.0 | 0.00 | 0.00 | 0.00 | 82 | 1020.8 |
| 20260507053335 | 45 | 79 | 0.0 | 0.0 | 0.00 | 0.00 | 0.00 | 81 | 1020.8 |
| 20260507052834 | 46 | 79 | 0.0 | 0.0 | 0.00 | 0.00 | 0.00 | 81 | 1020.6 |
| 20260507052330 | 46 | 79 | 0.0 | 0.0 | 0.00 | 0.00 | 0.00 | 81 | 1020.9 |
| 20260507051828 | 46 | 79 | 0.0 | 0.0 | 0.00 | 0.00 | 0.00 | 80 | 1020.4 |
| 20260507051325 | 46 | 79 | 0.0 | 0.0 | 0.00 | 0.00 | 0.00 | 80 | 1020.7 |
| 20260507050822 | 47 | 79 | 0.0 | 0.0 | 0.00 | 0.00 | 0.00 | 79 | 1020.6 |
| 20260507050318 | 47 | 79 | 0.0 | 0.0 | 0.00 | 0.00 | 0.00 | 78 | 1020.5 |
| 20260507045815 | 47 | 79 | 0.0 | 0.9 | 0.00 | 0.00 | 0.00 | 78 | 1020.4 |
| 20260507045312 | 48 | 91 | 0.0 | 0.0 | 0.00 | 0.00 | 0.00 | 77 | 1020.3 |
| 20260507044809 | 49 | 91 | 0.0 | 0.0 | 0.00 | 0.00 | 0.00 | 75 | 1020.2 |
| 20260507044305 | 49 | 91 | 0.0 | 0.0 | 0.00 | 0.00 | 0.00 | 74 | 1019.8 |
| 20260507043801 | 49 | 91 | 0.0 | 0.0 | 0.00 | 0.00 | 0.00 | 74 | 1019.9 |
| 20260507043258 | 50 | 91 | 0.0 | 0.0 | 0.00 | 0.00 | 0.00 | 71 | 1020.1 |
| 20260507042755 | 50 | 91 | 0.0 | 0.0 | 0.00 | 0.00 | 0.00 | 71 | 1019.8 |
| 20260507042249 | 50 | 91 | 0.0 | 0.0 | 0.00 | 0.00 | 0.00 | 71 | 1019.7 |
| 20260507041748 | 49 | 56 | 0.0 | 0.0 | 0.00 | 0.00 | 0.00 | 73 | 1019.7 |
| 20260507041244 | 48 | 56 | 0.0 | 0.0 | 0.00 | 0.00 | 0.00 | 75 | 1019.7 |
| 20260507040741 | 49 | 56 | 0.0 | 0.0 | 0.00 | 0.00 | 0.00 | 76 | 1020.1 |
| 20260507040237 | 49 | 56 | 0.0 | 0.0 | 0.00 | 0.00 | 0.00 | 76 | 1020.1 |
| 20260507035733 | 49 | 56 | 0.0 | 0.0 | 0.00 | 0.00 | 0.00 | 76 | 1020.0 |
| 20260507035229 | 49 | 56 | 0.0 | 0.0 | 0.00 | 0.00 | 0.00 | 75 | 1019.9 |
| 20260507034726 | 50 | 56 | 0.0 | 0.0 | 0.00 | 0.00 | 0.00 | 73 | 1020.0 |
| 20260507034223 | 50 | 56 | 0.0 | 0.0 | 0.00 | 0.00 | 0.00 | 73 | 1019.9 |
| 20260507033722 | 50 | 56 | 0.0 | 0.0 | 0.00 | 0.00 | 0.00 | 71 | 1019.8 |
| 20260507033219 | 51 | 56 | 0.0 | 0.0 | 0.00 | 0.00 | 0.00 | 71 | 1019.7 |
| 20260507032716 | 51 | 56 | 0.0 | 0.0 | 0.00 | 0.00 | 0.00 | 72 | 1019.7 |
| 20260507032212 | 51 | 56 | 0.0 | 0.0 | 0.00 | 0.00 | 0.00 | 69 | 1019.6 |
| 20260507031709 | 52 | 56 | 0.0 | 0.0 | 0.00 | 0.00 | 0.00 | 70 | 1019.7 |
| 20260507031205 | 52 | 56 | 0.0 | 0.0 | 0.00 | 0.00 | 0.00 | 69 | 1019.6 |
| 20260507030702 | 53 | 56 | 0.0 | 0.0 | 0.00 | 0.00 | 0.00 | 69 | 1019.5 |
| 20260507030200 | 54 | 56 | 0.0 | 0.0 | 0.00 | 0.00 | 0.00 | 66 | 1019.5 |
| 20260507025657 | 54 | 56 | 0.0 | 0.0 | 0.00 | 0.00 | 0.00 | 65 | 1019.3 |
| 20260507025154 | 55 | 56 | 0.0 | 0.0 | 0.00 | 0.00 | 0.00 | 63 | 1019.2 |
| 20260507024652 | 55 | 56 | 0.0 | 0.0 | 0.00 | 0.00 | 0.00 | 62 | 1019.1 |
| 20260507024149 | 55 | 64 | 0.0 | 0.0 | 0.00 | 0.00 | 0.00 | 63 | 1018.9 |
| 20260507023644 | 56 | 77 | 0.0 | 0.0 | 0.00 | 0.00 | 0.00 | 62 | 1018.9 |
| 20260507023142 | 56 | 59 | 0.0 | 0.0 | 0.00 | 0.00 | 0.00 | 60 | 1018.8 |
| 20260507022639 | 57 | 59 | 0.0 | 0.9 | 0.00 | 0.00 | 0.00 | 59 | 1018.8 |
| 20260507022134 | 58 | 59 | 0.0 | 0.0 | 0.00 | 0.00 | 0.00 | 58 | 1018.9 |
| 20260507021631 | 58 | 50 | 0.0 | 0.0 | 0.00 | 0.00 | 0.00 | 58 | 1018.8 |
| 20260507021126 | 59 | 66 | 0.9 | 0.9 | 0.00 | 0.00 | 0.00 | 57 | 1019.1 |
| 20260507020625 | 59 | 77 | 0.0 | 0.0 | 0.00 | 0.00 | 0.00 | 58 | 1018.9 |
| 20260507020121 | 59 | 84 | 1.7 | 2.6 | 0.00 | 0.00 | 0.00 | 56 | 1018.7 |
| 20260507015619 | 59 | 54 | 0.0 | 0.9 | 0.00 | 0.00 | 0.00 | 57 | 1018.7 |
| 20260507015116 | 60 | 53 | 0.9 | 0.9 | 0.00 | 0.00 | 0.00 | 55 | 1018.5 |
| 20260507014613 | 60 | 24 | 0.0 | 0.9 | 0.00 | 0.00 | 0.00 | 55 | 1018.4 |
| 20260507014109 | 60 | 65 | 0.0 | 0.0 | 0.00 | 0.00 | 0.00 | 55 | 1018.4 |
| 20260507013606 | 60 | 55 | 0.0 | 0.0 | 0.00 | 0.00 | 0.00 | 55 | 1018.4 |
| 20260507013103 | 60 | 54 | 1.7 | 1.7 | 0.00 | 0.00 | 0.00 | 54 | 1018.6 |
| 20260507012600 | 60 | 359 | 0.0 | 1.7 | 0.00 | 0.00 | 0.00 | 54 | 1018.2 |
| 20260507012055 | 60 | 65 | 0.9 | 1.7 | 0.00 | 0.00 | 0.00 | 54 | 1018.4 |
| 20260507011554 | 61 | 61 | 0.9 | 0.9 | 0.00 | 0.00 | 0.00 | 53 | 1018.4 |
| 20260507011050 | 61 | 346 | 0.0 | 0.9 | 0.00 | 0.00 | 0.00 | 52 | 1018.3 |
| 20260507010544 | 61 | 39 | 0.0 | 0.0 | 0.00 | 0.00 | 0.00 | 53 | 1018.3 |
| 20260507010041 | 61 | 63 | 0.0 | 1.7 | 0.00 | 0.00 | 0.00 | 51 | 1018.1 |
| 20260507005538 | 61 | 57 | 0.0 | 1.7 | 0.00 | 0.00 | 0.00 | 50 | 1018.1 |
| 20260507005034 | 62 | 56 | 0.0 | 0.0 | 0.00 | 0.00 | 0.00 | 51 | 1018.0 |
| 20260507004532 | 62 | 45 | 0.0 | 1.7 | 0.00 | 0.00 | 0.00 | 52 | 1018.0 |
| 20260507004029 | 62 | 99 | 0.9 | 1.7 | 0.00 | 0.00 | 0.00 | 52 | 1018.1 |
| 20260507003524 | 62 | 42 | 0.9 | 3.5 | 0.00 | 0.00 | 0.00 | 52 | 1018.1 |
| 20260507003020 | 62 | 63 | 0.0 | 0.9 | 0.00 | 0.00 | 0.00 | 52 | 1018.1 |
| 20260507002516 | 62 | 83 | 1.7 | 3.5 | 0.00 | 0.00 | 0.00 | 51 | 1017.9 |
| 20260507002013 | 62 | 42 | 0.0 | 0.9 | 0.00 | 0.00 | 0.00 | 50 | 1017.6 |
| 20260507001509 | 62 | 72 | 0.0 | 0.0 | 0.00 | 0.00 | 0.00 | 49 | 1017.4 |
| 20260507001007 | 62 | 355 | 0.0 | 1.7 | 0.00 | 0.00 | 0.00 | 49 | 1017.5 |
| 20260507000503 | 62 | 89 | 0.0 | 0.9 | 0.00 | 0.00 | 0.00 | 49 | 1017.6 |
| 20260506235958 | 63 | 289 | 0.9 | 1.7 | 0.00 | 0.00 | 0.00 | 48 | 1017.6 |
| 20260506235456 | 64 | 58 | 0.9 | 0.9 | 0.00 | 0.00 | 0.00 | 47 | 1017.5 |
| 20260506234951 | 64 | 115 | 0.9 | 1.7 | 0.00 | 0.00 | 0.00 | 47 | 1017.4 |
| 20260506234449 | 64 | 49 | 0.9 | 3.5 | 0.00 | 0.00 | 0.00 | 46 | 1017.3 |
| 20260506233946 | 64 | 57 | 0.9 | 5.2 | 0.00 | 0.00 | 0.00 | 46 | 1017.3 |
| 20260506233443 | 64 | 56 | 2.6 | 5.2 | 0.00 | 0.00 | 0.00 | 46 | 1017.5 |
| 20260506232939 | 64 | 25 | 0.9 | 7.0 | 0.00 | 0.00 | 0.00 | 46 | 1017.1 |
| 20260506232436 | 64 | 24 | 0.0 | 2.6 | 0.00 | 0.00 | 0.00 | 47 | 1017.3 |
| 20260506231931 | 65 | 56 | 0.9 | 2.6 | 0.00 | 0.00 | 0.00 | 46 | 1017.1 |
| 20260506231429 | 65 | 29 | 1.7 | 2.6 | 0.00 | 0.00 | 0.00 | 46 | 1017.0 |
| 20260506230926 | 66 | 50 | 1.7 | 1.7 | 0.00 | 0.00 | 0.00 | 44 | 1017.0 |
| 20260506230422 | 66 | 30 | 0.9 | 3.5 | 0.00 | 0.00 | 0.00 | 44 | 1017.1 |
| 20260506225919 | 66 | 53 | 4.3 | 7.8 | 0.00 | 0.00 | 0.00 | 44 | 1017.0 |
| 20260506225417 | 66 | 48 | 0.9 | 3.5 | 0.00 | 0.00 | 0.00 | 43 | 1017.0 |
| 20260506224914 | 66 | 48 | 0.0 | 6.1 | 0.00 | 0.00 | 0.00 | 44 | 1016.7 |
| 20260506224411 | 66 | 310 | 0.0 | 2.6 | 0.00 | 0.00 | 0.00 | 44 | 1016.9 |
| 20260506223907 | 66 | 68 | 1.7 | 2.6 | 0.00 | 0.00 | 0.00 | 45 | 1016.9 |
| 20260506223402 | 66 | 50 | 2.6 | 5.2 | 0.00 | 0.00 | 0.00 | 44 | 1016.6 |
| 20260506222900 | 66 | 72 | 0.9 | 5.2 | 0.00 | 0.00 | 0.00 | 45 | 1016.6 |
| 20260506222355 | 65 | 53 | 0.9 | 1.7 | 0.00 | 0.00 | 0.00 | 46 | 1016.5 |
| 20260506221853 | 64 | 74 | 0.0 | 1.7 | 0.00 | 0.00 | 0.00 | 48 | 1016.4 |
| 20260506221350 | 65 | 17 | 1.7 | 3.5 | 0.00 | 0.00 | 0.00 | 46 | 1016.6 |
| 20260506220848 | 67 | 81 | 0.9 | 8.7 | 0.00 | 0.00 | 0.00 | 44 | 1016.6 |
| 20260506220343 | 66 | 66 | 2.6 | 5.2 | 0.00 | 0.00 | 0.00 | 45 | 1016.4 |
| 20260506215840 | 65 | 41 | 0.9 | 5.2 | 0.00 | 0.00 | 0.00 | 45 | 1016.5 |
| 20260506215336 | 65 | 16 | 1.7 | 5.2 | 0.00 | 0.00 | 0.00 | 46 | 1016.7 |
| 20260506214832 | 66 | 31 | 2.6 | 7.8 | 0.00 | 0.00 | 0.00 | 45 | 1016.6 |
| 20260506214329 | 64 | 46 | 0.9 | 1.7 | 0.00 | 0.00 | 0.00 | 51 | 1016.8 |
| 20260506213828 | 64 | 42 | 1.7 | 3.5 | 0.00 | 0.00 | 0.00 | 48 | 1016.8 |
| 20260506213324 | 64 | 156 | 0.0 | 1.7 | 0.00 | 0.00 | 0.00 | 51 | 1016.9 |
| 20260506212822 | 64 | 57 | 1.7 | 2.6 | 0.00 | 0.00 | 0.00 | 49 | 1016.7 |
| 20260506212317 | 64 | 78 | 0.9 | 5.2 | 0.00 | 0.00 | 0.00 | 49 | 1016.9 |
| 20260506211812 | 66 | 141 | 2.6 | 3.5 | 0.00 | 0.00 | 0.00 | 48 | 1017.0 |
| 20260506211309 | 65 | 75 | 0.9 | 2.6 | 0.00 | 0.00 | 0.00 | 46 | 1016.9 |
| 20260506210807 | 64 | 84 | 0.9 | 3.5 | 0.00 | 0.00 | 0.00 | 48 | 1017.0 |
| 20260506210303 | 65 | 70 | 0.0 | 7.8 | 0.00 | 0.00 | 0.00 | 46 | 1017.0 |
| 20260506205800 | 64 | 297 | 3.5 | 6.1 | 0.00 | 0.00 | 0.00 | 50 | 1017.0 |
| 20260506205256 | 63 | 357 | 0.9 | 5.2 | 0.00 | 0.00 | 0.00 | 49 | 1016.9 |
| 20260506204752 | 63 | 359 | 1.7 | 6.1 | 0.00 | 0.00 | 0.00 | 52 | 1017.1 |
| 20260506204250 | 63 | 30 | 3.5 | 6.1 | 0.00 | 0.00 | 0.00 | 50 | 1017.3 |
| 20260506203748 | 63 | 65 | 1.7 | 3.5 | 0.00 | 0.00 | 0.00 | 51 | 1017.2 |
| 20260506203245 | 63 | 133 | 1.7 | 3.5 | 0.00 | 0.00 | 0.00 | 51 | 1017.1 |
| 20260506202742 | 63 | 0 | 1.7 | 3.5 | 0.00 | 0.00 | 0.00 | 52 | 1017.4 |
| 20260506202239 | 63 | 52 | 2.6 | 6.1 | 0.00 | 0.00 | 0.00 | 53 | 1017.3 |
| 20260506201735 | 63 | 88 | 0.9 | 3.5 | 0.00 | 0.00 | 0.00 | 52 | 1017.4 |
| 20260506201232 | 63 | 64 | 2.6 | 3.5 | 0.00 | 0.00 | 0.00 | 52 | 1017.4 |
| 20260506200729 | 63 | 29 | 0.9 | 3.5 | 0.00 | 0.00 | 0.00 | 52 | 1017.5 |
| 20260506200226 | 62 | 39 | 0.0 | 1.7 | 0.00 | 0.00 | 0.00 | 53 | 1017.6 |
| 20260506195722 | 62 | 56 | 1.7 | 7.0 | 0.00 | 0.00 | 0.00 | 52 | 1017.5 |
| 20260506195219 | 63 | 62 | 0.9 | 3.5 | 0.00 | 0.00 | 0.00 | 51 | 1017.4 |
| 20260506194716 | 63 | 347 | 0.9 | 5.2 | 0.00 | 0.00 | 0.00 | 51 | 1017.6 |
| 20260506194212 | 63 | 84 | 1.7 | 3.5 | 0.00 | 0.00 | 0.00 | 51 | 1017.5 |
| 20260506193710 | 63 | 1 | 3.5 | 5.2 | 0.00 | 0.00 | 0.00 | 51 | 1017.4 |
| 20260506193207 | 63 | 42 | 1.7 | 3.5 | 0.00 | 0.00 | 0.00 | 52 | 1017.6 |
| 20260506192703 | 62 | 37 | 1.7 | 7.0 | 0.00 | 0.00 | 0.00 | 53 | 1018.0 |
| 20260506192200 | 62 | 74 | 0.9 | 3.5 | 0.00 | 0.00 | 0.00 | 52 | 1017.8 |
| 20260506191657 | 63 | 47 | 0.0 | 3.5 | 0.00 | 0.00 | 0.00 | 52 | 1017.6 |
| 20260506191153 | 63 | 11 | 2.6 | 5.2 | 0.00 | 0.00 | 0.00 | 52 | 1017.8 |
| 20260506190650 | 64 | 355 | 1.7 | 2.6 | 0.00 | 0.00 | 0.00 | 52 | 1017.9 |
| 20260506190147 | 63 | 34 | 0.0 | 5.2 | 0.00 | 0.00 | 0.00 | 53 | 1017.9 |
| 20260506185644 | 63 | 62 | 0.9 | 3.5 | 0.00 | 0.00 | 0.00 | 52 | 1017.9 |
| 20260506185140 | 63 | 93 | 3.5 | 5.2 | 0.00 | 0.00 | 0.00 | 50 | 1018.0 |
| 20260506184638 | 63 | 70 | 1.7 | 2.6 | 0.00 | 0.00 | 0.00 | 51 | 1017.8 |
| 20260506184135 | 63 | 87 | 1.7 | 7.0 | 0.00 | 0.00 | 0.00 | 50 | 1018.0 |
| 20260506183632 | 63 | 243 | 0.9 | 1.7 | 0.00 | 0.00 | 0.00 | 51 | 1018.1 |
| 20260506183127 | 62 | 350 | 0.0 | 0.9 | 0.00 | 0.00 | 0.00 | 53 | 1018.2 |
| 20260506182625 | 63 | 236 | 0.9 | 3.5 | 0.00 | 0.00 | 0.00 | 51 | 1018.2 |
| 20260506182122 | 63 | 55 | 4.3 | 7.0 | 0.00 | 0.00 | 0.00 | 50 | 1018.2 |
| 20260506181620 | 61 | 15 | 1.7 | 6.1 | 0.00 | 0.00 | 0.00 | 53 | 1018.2 |
| 20260506181117 | 62 | 49 | 5.2 | 7.8 | 0.00 | 0.00 | 0.00 | 52 | 1018.4 |
| 20260506180614 | 61 | 36 | 3.5 | 5.2 | 0.00 | 0.00 | 0.00 | 52 | 1018.3 |
| 20260506180110 | 61 | 44 | 0.9 | 3.5 | 0.00 | 0.00 | 0.00 | 53 | 1018.7 |
| 20260506175606 | 62 | 34 | 3.5 | 5.2 | 0.00 | 0.00 | 0.00 | 51 | 1018.8 |
| 20260506175102 | 62 | 27 | 2.6 | 5.2 | 0.00 | 0.00 | 0.00 | 51 | 1019.0 |
| 20260506174602 | 62 | 23 | 3.5 | 5.2 | 0.00 | 0.00 | 0.00 | 50 | 1018.8 |
| 20260506174057 | 61 | 49 | 2.6 | 3.5 | 0.00 | 0.00 | 0.00 | 54 | 1018.8 |
| 20260506173555 | 61 | 60 | 2.6 | 2.6 | 0.00 | 0.00 | 0.00 | 52 | 1018.7 |
| 20260506173052 | 63 | 66 | 2.6 | 7.0 | 0.00 | 0.00 | 0.00 | 50 | 1018.7 |
| 20260506172549 | 60 | 79 | 0.9 | 1.7 | 0.00 | 0.00 | 0.00 | 54 | 1018.6 |
| 20260506172045 | 60 | 37 | 2.6 | 7.0 | 0.00 | 0.00 | 0.00 | 53 | 1018.8 |
| 20260506171543 | 60 | 61 | 3.5 | 6.1 | 0.00 | 0.00 | 0.00 | 55 | 1018.7 |
| 20260506171041 | 60 | 355 | 1.7 | 5.2 | 0.00 | 0.00 | 0.00 | 52 | 1018.8 |
| 20260506170538 | 60 | 91 | 2.6 | 8.7 | 0.00 | 0.00 | 0.00 | 54 | 1018.9 |
| 20260506170035 | 59 | 106 | 0.9 | 6.1 | 0.00 | 0.00 | 0.00 | 54 | 1019.0 |
| 20260506165534 | 60 | 62 | 0.9 | 7.0 | 0.00 | 0.00 | 0.00 | 54 | 1019.0 |
| 20260506165029 | 61 | 55 | 4.3 | 6.1 | 0.00 | 0.00 | 0.00 | 52 | 1019.0 |
| 20260506164526 | 60 | 20 | 3.5 | 7.0 | 0.00 | 0.00 | 0.00 | 51 | 1019.0 |
| 20260506164024 | 62 | 339 | 2.6 | 5.2 | 0.00 | 0.00 | 0.00 | 51 | 1019.0 |
| 20260506163520 | 62 | 70 | 3.5 | 3.5 | 0.00 | 0.00 | 0.00 | 51 | 1019.1 |
| 20260506163016 | 62 | 68 | 1.7 | 5.2 | 0.00 | 0.00 | 0.00 | 51 | 1019.1 |
| 20260506162512 | 61 | 99 | 1.7 | 2.6 | 0.00 | 0.00 | 0.00 | 55 | 1019.1 |
| 20260506162009 | 59 | 48 | 2.6 | 5.2 | 0.00 | 0.00 | 0.00 | 54 | 1019.0 |
| 20260506161507 | 59 | 53 | 1.7 | 7.8 | 0.00 | 0.00 | 0.00 | 56 | 1018.9 |
| 20260506161004 | 58 | 74 | 3.5 | 6.1 | 0.00 | 0.00 | 0.00 | 54 | 1018.9 |
| 20260506160502 | 58 | 43 | 3.5 | 7.0 | 0.00 | 0.00 | 0.00 | 55 | 1019.0 |
| 20260506155959 | 58 | 203 | 1.7 | 5.2 | 0.00 | 0.00 | 0.00 | 55 | 1018.7 |
| 20260506155457 | 57 | 356 | 0.0 | 1.7 | 0.00 | 0.00 | 0.00 | 58 | 1018.9 |
| 20260506153628 | 57 | 53 | 4.3 | 7.0 | 0.00 | 0.00 | 0.00 | 58 | 1018.9 |
| 20260506153125 | 57 | 36 | 2.6 | 5.2 | 0.00 | 0.00 | 0.00 | 60 | 1018.9 |
| 20260506152622 | 56 | 55 | 0.0 | 6.1 | 0.00 | 0.00 | 0.00 | 61 | 1018.9 |
| 20260506152120 | 56 | 67 | 1.7 | 5.2 | 0.00 | 0.00 | 0.00 | 62 | 1018.8 |
| 20260506151619 | 56 | 58 | 3.5 | 7.0 | 0.00 | 0.00 | 0.00 | 61 | 1018.9 |
| 20260506151115 | 55 | 34 | 4.3 | 6.1 | 0.00 | 0.00 | 0.00 | 63 | 1018.9 |
| 20260506150612 | 55 | 38 | 1.7 | 3.5 | 0.00 | 0.00 | 0.00 | 64 | 1018.5 |
| 20260506150109 | 55 | 31 | 1.7 | 5.2 | 0.00 | 0.00 | 0.00 | 65 | 1018.4 |
| 20260506145606 | 54 | 22 | 3.5 | 5.2 | 0.00 | 0.00 | 0.00 | 65 | 1018.4 |
| 20260506145103 | 54 | 38 | 1.7 | 7.0 | 0.00 | 0.00 | 0.00 | 67 | 1018.1 |
| 20260506144559 | 53 | 226 | 0.9 | 2.6 | 0.00 | 0.00 | 0.00 | 70 | 1018.1 |
| 20260506144056 | 53 | 97 | 0.9 | 7.0 | 0.00 | 0.00 | 0.00 | 70 | 1018.3 |
| 20260506143554 | 52 | 32 | 2.6 | 3.5 | 0.00 | 0.00 | 0.00 | 72 | 1018.3 |
| 20260506143052 | 52 | 36 | 3.5 | 7.0 | 0.00 | 0.00 | 0.00 | 71 | 1018.3 |
| 20260506142550 | 52 | 74 | 2.6 | 6.1 | 0.00 | 0.00 | 0.00 | 72 | 1018.1 |
| 20260506142048 | 51 | 307 | 1.7 | 7.0 | 0.00 | 0.00 | 0.00 | 73 | 1018.0 |
| 20260506141545 | 51 | 44 | 1.7 | 1.7 | 0.00 | 0.00 | 0.00 | 75 | 1018.1 |
| 20260506141043 | 51 | 84 | 1.7 | 7.8 | 0.00 | 0.00 | 0.00 | 75 | 1018.4 |
| 20260506140540 | 51 | 85 | 2.6 | 6.1 | 0.00 | 0.00 | 0.00 | 74 | 1018.2 |
| 20260506140038 | 51 | 49 | 1.7 | 5.2 | 0.00 | 0.00 | 0.00 | 75 | 1018.4 |
| 20260506135534 | 51 | 266 | 6.1 | 11.3 | 0.00 | 0.00 | 0.00 | 75 | 1018.4 |
| 20260506135030 | 51 | 55 | 0.0 | 6.1 | 0.00 | 0.00 | 0.00 | 76 | 1018.3 |
| 20260506134527 | 51 | 61 | 0.9 | 3.5 | 0.00 | 0.00 | 0.00 | 76 | 1018.4 |
| 20260506134023 | 50 | 54 | 0.9 | 5.2 | 0.00 | 0.00 | 0.00 | 77 | 1018.2 |
| 20260506133521 | 50 | 66 | 3.5 | 5.2 | 0.00 | 0.00 | 0.00 | 77 | 1018.2 |
| 20260506133018 | 50 | 121 | 0.9 | 5.2 | 0.00 | 0.00 | 0.00 | 78 | 1018.2 |
| 20260506132514 | 50 | 57 | 0.9 | 3.5 | 0.00 | 0.00 | 0.00 | 78 | 1018.2 |
| 20260506132012 | 50 | 81 | 1.7 | 3.5 | 0.00 | 0.00 | 0.00 | 79 | 1018.2 |
| 20260506131509 | 49 | 51 | 1.7 | 5.2 | 0.00 | 0.00 | 0.00 | 79 | 1017.9 |
| 20260506131005 | 49 | 50 | 0.9 | 2.6 | 0.00 | 0.00 | 0.00 | 80 | 1018.0 |
| 20260506130502 | 49 | 31 | 1.7 | 3.5 | 0.00 | 0.00 | 0.00 | 80 | 1018.1 |
| 20260506125959 | 49 | 74 | 3.5 | 5.2 | 0.00 | 0.00 | 0.00 | 80 | 1018.1 |
| 20260506125458 | 49 | 14 | 2.6 | 7.0 | 0.00 | 0.00 | 0.00 | 80 | 1018.0 |
| 20260506124955 | 49 | 69 | 1.7 | 3.5 | 0.00 | 0.00 | 0.00 | 81 | 1018.1 |
| 20260506124453 | 49 | 60 | 1.7 | 2.6 | 0.00 | 0.00 | 0.00 | 82 | 1017.8 |
| 20260506123951 | 49 | 354 | 2.6 | 7.0 | 0.00 | 0.00 | 0.00 | 82 | 1017.8 |
| 20260506123448 | 48 | 82 | 1.7 | 2.6 | 0.00 | 0.00 | 0.00 | 82 | 1017.9 |
| 20260506122946 | 48 | 167 | 0.9 | 3.5 | 0.00 | 0.00 | 0.00 | 81 | 1017.6 |
| 20260506122443 | 48 | 49 | 2.6 | 6.1 | 0.00 | 0.00 | 0.00 | 81 | 1017.4 |
| 20260506121941 | 48 | 98 | 0.9 | 2.6 | 0.00 | 0.00 | 0.00 | 81 | 1017.4 |
| 20260506121438 | 48 | 59 | 0.0 | 1.7 | 0.00 | 0.00 | 0.00 | 81 | 1017.0 |
| 20260506120934 | 48 | 60 | 0.0 | 2.6 | 0.00 | 0.00 | 0.00 | 81 | 1017.3 |
| 20260506120432 | 48 | 71 | 0.0 | 5.2 | 0.00 | 0.00 | 0.00 | 81 | 1017.2 |
| 20260506115929 | 48 | 47 | 0.9 | 6.1 | 0.00 | 0.00 | 0.00 | 81 | 1017.0 |
| 20260506115427 | 48 | 57 | 0.9 | 3.5 | 0.00 | 0.00 | 0.00 | 81 | 1017.4 |
| 20260506114925 | 48 | 77 | 0.0 | 2.6 | 0.00 | 0.00 | 0.00 | 81 | 1017.0 |
| 20260506114422 | 48 | 7 | 1.7 | 3.5 | 0.00 | 0.00 | 0.00 | 80 | 1016.7 |
| 20260506113921 | 48 | 66 | 4.3 | 6.1 | 0.00 | 0.00 | 0.00 | 80 | 1016.6 |
| 20260506113418 | 48 | 65 | 0.9 | 1.7 | 0.00 | 0.00 | 0.00 | 80 | 1016.5 |
| 20260506112914 | 48 | 80 | 1.7 | 2.6 | 0.00 | 0.00 | 0.00 | 80 | 1016.7 |
| 20260506112413 | 48 | 93 | 2.6 | 3.5 | 0.00 | 0.00 | 0.00 | 80 | 1016.7 |
| 20260506111909 | 48 | 332 | 0.9 | 6.1 | 0.00 | 0.00 | 0.00 | 80 | 1016.5 |
| 20260506111408 | 48 | 45 | 0.9 | 2.6 | 0.00 | 0.00 | 0.00 | 79 | 1016.5 |
| 20260506110904 | 49 | 67 | 1.7 | 2.6 | 0.00 | 0.00 | 0.00 | 79 | 1016.5 |
| 20260506110402 | 49 | 8 | 0.9 | 3.5 | 0.00 | 0.00 | 0.00 | 79 | 1016.9 |
| 20260506105858 | 49 | 65 | 1.7 | 2.6 | 0.00 | 0.00 | 0.00 | 79 | 1017.1 |
| 20260506105355 | 49 | 33 | 0.9 | 5.2 | 0.00 | 0.00 | 0.00 | 79 | 1017.0 |
| 20260506104852 | 49 | 356 | 1.7 | 2.6 | 0.00 | 0.00 | 0.00 | 78 | 1017.1 |
| 20260506104350 | 49 | 5 | 0.9 | 2.6 | 0.00 | 0.00 | 0.00 | 78 | 1016.9 |
| 20260506103847 | 49 | 339 | 0.0 | 1.7 | 0.00 | 0.00 | 0.00 | 78 | 1016.9 |
| 20260506103345 | 49 | 326 | 1.7 | 2.6 | 0.00 | 0.00 | 0.00 | 78 | 1017.1 |
| 20260506102842 | 49 | 4 | 0.0 | 3.5 | 0.00 | 0.00 | 0.00 | 77 | 1017.0 |
| 20260506102340 | 49 | 345 | 2.6 | 5.2 | 0.00 | 0.00 | 0.00 | 78 | 1016.9 |
| 20260506101837 | 49 | 350 | 0.9 | 1.7 | 0.00 | 0.00 | 0.00 | 77 | 1016.9 |
| 20260506101333 | 49 | 53 | 1.7 | 3.5 | 0.00 | 0.00 | 0.00 | 77 | 1016.8 |
| 20260506100831 | 49 | 43 | 2.6 | 5.2 | 0.00 | 0.00 | 0.00 | 77 | 1016.9 |
| 20260506100329 | 49 | 357 | 3.5 | 5.2 | 0.00 | 0.00 | 0.00 | 77 | 1016.8 |
| 20260506095827 | 49 | 49 | 2.6 | 6.1 | 0.00 | 0.00 | 0.00 | 77 | 1016.5 |
| 20260506095324 | 49 | 54 | 0.9 | 1.7 | 0.00 | 0.00 | 0.00 | 77 | 1016.4 |
| 20260506094821 | 49 | 32 | 0.9 | 2.6 | 0.00 | 0.00 | 0.00 | 77 | 1016.4 |
| 20260506094319 | 49 | 280 | 0.9 | 7.0 | 0.00 | 0.00 | 0.00 | 77 | 1016.3 |